Regional Weather Roundup
Issued by NWS Newport/Morehead, NC

Current Version | Previous Version | Graphics & Text | Print | Product List | Glossary Off
Versions: 1 2 3 4 5 6 7 8 9 10 11 12 13 14 15 16 17 18 19 20 21 22 23 24 25 26 27 28 29 30 31 32 33 34 35 36 37 38 39 40 41 42 43 44 45 46 47 48 49 50

878
ASUS42 KMHX 251725
RWRMHX
WEATHER ROUNDUP FOR EASTERN NORTH CAROLINA
NATIONAL WEATHER SERVICE NEWPORT/MOREHEAD CITY NC
100 PM EDT SUN SEP 25 2016

NOTE: "FAIR" INDICATES FEW OR NO CLOUDS BELOW 12,000 FEET
WITH NO SIGNIFICANT WEATHER AND/OR OBSTRUCTIONS TO VISIBILITY

NCZ015>017-031-032-045>047-102-103-251800-
NORTH COAST

CITY           SKY/WX    TMP DP  RH WIND       PRES   REMARKS
EDENTON        CLOUDY    74  60  60 E3        30.17S
ELIZABETH CITY CLOUDY    73  57  57 NE8       30.17S
KITTY HAWK     NOT AVBL
MANTEO         PTSUNNY   72  58  60 E12       30.16S

$$

NCZ045>047-081-094-103-104-251800-
CENTRAL COAST

CITY           SKY/WX    TMP DP  RH WIND       PRES   REMARKS
FRISCO         CLOUDY    74  59  59 NE13G18   30.12F

$$

NCZ095-097-098-100-101-251800-
SOUTHERN COAST

CITY           SKY/WX    TMP DP  RH WIND       PRES   REMARKS
BEAUFORT       CLOUDY    77  68  73 NE12G20   30.12F
CEDAR ISLAND   NOT AVBL
JACKSONVILLE   PTSUNNY   79  69  71 NE9       30.12F
PINEY ISLAND   PTSUNNY  N/A N/A N/A NE14      30.13F
WILMINGTON     CLOUDY    80  71  74 VRB6      30.11F


$$

NCZ011>013-027>030-043-044-078>080-089-090>093-098-251800-
COASTAL PLAIN

CITY           SKY/WX    TMP DP  RH WIND       PRES   REMARKS
AHOSKIE        MOSUNNY   71  60  69 E3        30.17S
CLINTON        MOSUNNY   76  71  83 NE3       30.13F
ELIZABETHTOWN  MOSUNNY   82  70  68 CALM      30.11F
GOLDSBORO      CLOUDY    74  71  91 E9        30.13F
GREENVILLE     PTSUNNY   75  68  78 NE9       30.16F
HAVELOCK       PTSUNNY   77  68  73 NE12      30.14F
KENANSVILLE    CLOUDY    75  68  78 E3        30.13F
KINSTON        CLOUDY    75  66  73 E6        30.15F
NEW BERN       CLOUDY    75  66  73 NE8       30.14F
RICHLANDS      PTSUNNY   77  70  79 N7        30.13F
ROCKY MOUNT    CLOUDY    74  67  78 NE7       30.16S
WASHINGTON     MOSUNNY   74  65  73 NE10      30.15F
WHITEVILLE     NOT AVBL

$$

AMZ130-135-150-152-154-156-158-170-250-252-270-ANZ085-086-088-633-658-670-251800-
MARINE OBSERVATIONS

STATION/POSITION TIME  TEMP    WIND        PRES    WAVE   SWELL
                       AIR SEA DIR/SP/G            HT/PER HT/PER
                 (UTC) (F)     (DEG/KT/KT) (MB)    (FT/S) (FT/S)
CHESAPEAKE LIGHT NOT AVBL
64 E VA BEACH    1650   70 74   30/ 14/ 17 1020.8    5/ 8   3/ 8
DUCK             1700   70 77   30/ 13/ 15 1021.0
2 E DUCK         1641      77                N/A     5/11   2/11
OREGON INLET     1700   72 78   30/ 12/ 15 1020.8
13E OREGON INLT  1700      76                N/A     5/ 9   5/ 9
HATTERAS CG      1700   74 80   30/ 12/ 17 1019.8
DIAMOND BUOY     1650   74 85   30/ 19/ 21 1019.1    5/11   3/11
CAPE LOOKOUT     1700   75      50/ 17/ 20 1019.5
BEAUFORT LAB     1700   76 79   20/ 10/ 16 1019.3
30 SE NEW RVR IN 1708   78 82   60/ 16/ 19 1019.2
30 SE NEW RVR IN 1655      82                N/A     4/11   2/11
27 SE WRIGHTSVLE 1708   79 81   50/ 14/ 17 1019.2
5 SE WRIGHTSVLE  1608   78 81   60/ 14/ 17 1020.6
225 S CAPE HAT   1650   82 84   70/ 10/ 12 1017.2    4/10   3/10
41 SE CHARLESTON 1650   82 82   50/ 16/ 17 1017.4    4/11   3/11

$$




USA.gov is the U.S. government's official web portal to all federal, state and local government web resources and services.